Regional Weather Roundup
Issued by NWS Cleveland, OH

Home | Current Version | Previous Version | Text Only | Print | Product List | Glossary Off
Versions: 1 2 3 4 5 6 7 8 9 10 11 12 13 14 15 16 17 18 19 20 21 22 23 24 25 26 27 28 29 30 31 32 33 34 35 36 37 38 39 40 41 42 43 44 45 46 47 48 49 50

000
ASUS41 KCLE 292102
RWRCLE
OHIO REGIONAL WEATHER ROUNDUP
NATIONAL WEATHER SERVICE CLEVELAND, OH
500 PM EDT SAT AUG 29 2015

NOTE: "FAIR" INDICATES FEW OR NO CLOUDS BELOW 12,000 FEET WITH NO
SIGNIFICANT WEATHER AND/OR OBSTRUCTIONS TO VISIBILITY.

OHZ001>008-015>018-024>027-034-035-043-044-292200-
   NORTHWEST OHIO

CITY           SKY/WX    TMP DP  RH WIND       PRES   REMARKS
DEFIANCE       LGT RAIN  77  67  71 SW5       30.06S
FINDLAY        FAIR      80  67  64 SW6       30.04F
TOLEDO EXPRESS LGT RAIN  77  66  68 NW5       30.05F
TOLEDO EXEC    PTSUNNY   80  64  58 S5        30.06S
LIMA           FAIR      80  67  64 SW6       30.06F
$$

OHZ009>014-019>023-028>033-038-089-292200-
   NORTHEAST OHIO

CITY           SKY/WX    TMP DP  RH WIND       PRES   REMARKS
CLE-HOPKINS    FAIR      84  62  47 SW9       30.08F
CLE-LAKEFRONT  FAIR      79  64  60 NE7       30.05F
CUY CO. ARPT   MOSUNNY   84  63  48 NE9       30.08F
LORAIN-ELYRIA  FAIR      83  64  52 SW8       30.07F
ASHTABULA      CLOUDY    79  60  52 SW5       30.10F
AKRON-CANTON   FAIR      82  61  48 SW12      30.09F
WOOSTER        FAIR      82  63  52 SW8       30.09F
MANSFIELD      FAIR      82  63  52 SW13      30.09F
YOUNGSTOWN     PTSUNNY   82  60  47 CALM      30.10F
$$

OHZ042-051>053-060>062-070>072-077>081-292200-
  SOUTHWEST OHIO

CITY           SKY/WX    TMP DP  RH WIND       PRES   REMARKS
CINC-COVINGTON PTSUNNY   79  67  66 W14G23    30.09R THUNDER
CINC-LUNKEN    PTSUNNY   81  69  67 NW7       30.06F
HAMILTON       FAIR      86  66  51 VRB6      30.07F
DAYTON         PTSUNNY   83  66  56 SW6       30.08F
WRIGHT-PAT AFB MOSUNNY   84  65  51 SW7       30.06F
DAYTON GENERAL FAIR      84  64  50 W9        30.07F
WILMINGTON     FAIR      82  63  52 S8        30.08F
$$

OHZ036-037-039>041-045>050-054>059-063>069-073>076-082>088-292200-
  CENTRAL AND SOUTHEAST OHIO

CITY           SKY/WX    TMP DP  RH WIND       PRES   REMARKS
COLUMBUS       PTSUNNY   85  61  44 SW12      30.06F
OSU AIRPORT    FAIR      85  64  49 SW8       30.07F
BOLTON FIELD   NOT AVBL
RICKENBACK AFB FAIR      87  63  44 S10G16    30.06S
NEWARK         PTSUNNY   85  66  53 NE3       30.07F
MARION         FAIR      82  63  52 SW10      30.08F
LANCASTER      FAIR      84  64  50 SW8       30.08F
ZANESVILLE     FAIR      87  58  37 S8        30.08F
NEW PHILLY     FAIR      84  60  44 SW3       30.08F
$$



USA.gov is the U.S. government's official web portal to all federal, state and local government web resources and services.